Time,TemperatureF,DewpointF,PressureIn,WindDirection,WindDirectionDegrees,WindSpeedMPH,WindSpeedGustMPH,Humidity,HourlyPrecipIn,Conditions,Clouds,dailyrainin,SolarRadiationWatts/m^2,SoftwareType,DateUTC
2013-07-18 00:01:00,77.4,69.9,30.01,South,174,0.0,0.0,78,0.00,,,0.00,0,HR-IXPWINDi_r2_v1.2.,2013-07-18 04:01:00,
2013-07-18 00:06:00,77.4,69.9,30.01,South,174,0.0,0.0,78,0.00,,,0.00,0,HR-IXPWINDi_r2_v1.2.,2013-07-18 04:06:00,
2013-07-18 00:11:00,77.2,70.1,30.01,South,174,0.0,0.0,79,0.00,,,0.00,0,HR-IXPWINDi_r2_v1.2.,2013-07-18 04:11:00,
2013-07-18 00:16:00,77.0,69.9,30.01,South,174,0.0,0.0,79,0.00,,,0.00,0,HR-IXPWINDi_r2_v1.2.,2013-07-18 04:16:00,
2013-07-18 00:22:00,76.8,69.7,30.01,South,174,0.0,0.0,79,0.00,,,0.00,0,HR-IXPWINDi_r2_v1.2.,2013-07-18 04:22:00,
2013-07-18 00:27:00,76.7,69.6,30.01,South,174,0.0,0.0,79,0.00,,,0.00,0,HR-IXPWINDi_r2_v1.2.,2013-07-18 04:27:00,
2013-07-18 00:32:00,76.7,70.0,30.01,South,174,0.0,0.0,80,0.00,,,0.00,0,HR-IXPWINDi_r2_v1.2.,2013-07-18 04:32:00,
2013-07-18 00:37:00,76.5,69.8,30.01,South,174,0.0,0.0,80,0.00,,,0.00,0,HR-IXPWINDi_r2_v1.2.,2013-07-18 04:37:00,
2013-07-18 00:42:00,76.3,69.6,30.01,South,174,0.0,0.0,80,0.00,,,0.00,0,HR-IXPWINDi_r2_v1.2.,2013-07-18 04:42:00,
2013-07-18 00:48:00,76.3,69.6,30.01,South,174,0.0,0.0,80,0.00,,,0.00,0,HR-IXPWINDi_r2_v1.2.,2013-07-18 04:48:00,
2013-07-18 00:53:00,76.3,70.0,30.01,South,174,0.0,0.0,81,0.00,,,0.00,0,HR-IXPWINDi_r2_v1.2.,2013-07-18 04:53:00,
2013-07-18 00:58:00,76.1,69.8,30.01,South,174,0.0,0.0,81,0.00,,,0.00,0,HR-IXPWINDi_r2_v1.2.,2013-07-18 04:58:00,
2013-07-18 01:03:00,76.1,69.8,30.01,South,174,0.0,0.0,81,0.00,,,0.00,0,HR-IXPWINDi_r2_v1.2.,2013-07-18 05:03:00,
2013-07-18 01:09:00,76.1,70.1,30.01,South,174,0.0,0.0,82,0.00,,,0.00,0,HR-IXPWINDi_r2_v1.2.,2013-07-18 05:09:00,
2013-07-18 01:14:00,76.1,70.1,30.01,South,174,0.0,0.0,82,0.00,,,0.00,0,HR-IXPWINDi_r2_v1.2.,2013-07-18 05:14:00,
2013-07-18 01:19:00,76.0,70.0,30.01,South,174,0.0,0.0,82,0.00,,,0.00,0,HR-IXPWINDi_r2_v1.2.,2013-07-18 05:19:00,
2013-07-18 01:25:00,76.0,70.0,30.01,South,174,0.0,0.0,82,0.00,,,0.00,0,HR-IXPWINDi_r2_v1.2.,2013-07-18 05:25:00,
2013-07-18 01:30:00,76.0,69.7,30.01,South,174,0.0,0.0,81,0.00,,,0.00,0,HR-IXPWINDi_r2_v1.2.,2013-07-18 05:30:00,
2013-07-18 01:35:00,75.8,69.9,30.00,South,174,0.0,0.0,82,0.00,,,0.00,0,HR-IXPWINDi_r2_v1.2.,2013-07-18 05:35:00,
2013-07-18 01:40:00,75.8,69.9,30.00,South,174,0.0,0.0,82,0.00,,,0.00,0,HR-IXPWINDi_r2_v1.2.,2013-07-18 05:40:00,
2013-07-18 01:45:00,75.8,70.2,30.00,South,174,0.0,0.0,83,0.00,,,0.00,0,HR-IXPWINDi_r2_v1.2.,2013-07-18 05:45:00,
2013-07-18 01:50:00,75.8,70.2,30.00,South,174,0.0,0.0,83,0.00,,,0.00,0,HR-IXPWINDi_r2_v1.2.,2013-07-18 05:50:00,
2013-07-18 01:56:00,75.8,70.6,30.00,SSE,167,0.0,0.0,84,0.00,,,0.00,0,HR-IXPWINDi_r2_v1.2.,2013-07-18 05:56:00,
2013-07-18 02:01:00,75.8,70.6,30.00,South,174,0.0,0.0,84,0.00,,,0.00,0,HR-IXPWINDi_r2_v1.2.,2013-07-18 06:01:00,
2013-07-18 02:06:00,75.8,70.6,29.99,South,174,0.0,0.0,84,0.00,,,0.00,0,HR-IXPWINDi_r2_v1.2.,2013-07-18 06:06:00,
2013-07-18 02:11:00,75.8,70.6,29.99,South,174,0.0,0.0,84,0.00,,,0.00,0,HR-IXPWINDi_r2_v1.2.,2013-07-18 06:11:00,
2013-07-18 02:17:00,75.8,70.6,29.99,South,174,0.0,0.0,84,0.00,,,0.00,0,HR-IXPWINDi_r2_v1.2.,2013-07-18 06:17:00,
2013-07-18 02:22:00,75.8,70.6,29.99,South,174,0.0,0.0,84,0.00,,,0.00,0,HR-IXPWINDi_r2_v1.2.,2013-07-18 06:22:00,
2013-07-18 02:27:00,75.6,70.4,29.99,South,174,0.0,0.0,84,0.00,,,0.00,0,HR-IXPWINDi_r2_v1.2.,2013-07-18 06:27:00,
2013-07-18 02:32:00,75.6,70.4,29.99,South,174,0.0,0.0,84,0.00,,,0.00,0,HR-IXPWINDi_r2_v1.2.,2013-07-18 06:32:00,
2013-07-18 02:37:00,75.8,70.6,29.99,South,174,0.0,0.0,84,0.00,,,0.00,0,HR-IXPWINDi_r2_v1.2.,2013-07-18 06:37:00,
2013-07-18 02:43:00,75.8,70.6,29.99,South,174,0.0,0.0,84,0.00,,,0.00,0,HR-IXPWINDi_r2_v1.2.,2013-07-18 06:43:00,
2013-07-18 02:48:00,75.8,70.6,29.99,South,174,0.0,0.0,84,0.00,,,0.00,0,HR-IXPWINDi_r2_v1.2.,2013-07-18 06:48:00,
2013-07-18 02:53:00,76.0,70.8,29.99,South,174,0.0,0.0,84,0.00,,,0.00,0,HR-IXPWINDi_r2_v1.2.,2013-07-18 06:53:00,
2013-07-18 02:58:00,76.0,71.1,29.99,South,174,0.0,0.0,85,0.00,,,0.00,0,HR-IXPWINDi_r2_v1.2.,2013-07-18 06:58:00,
2013-07-18 03:03:00,76.1,71.2,29.99,South,174,0.0,0.0,85,0.00,,,0.00,0,HR-IXPWINDi_r2_v1.2.,2013-07-18 07:03:00,
2013-07-18 03:09:00,76.3,71.1,29.99,South,174,0.0,0.0,84,0.00,,,0.00,0,HR-IXPWINDi_r2_v1.2.,2013-07-18 07:09:00,
2013-07-18 03:14:00,76.5,70.9,29.99,South,174,0.0,0.0,83,0.00,,,0.00,0,HR-IXPWINDi_r2_v1.2.,2013-07-18 07:14:00,
2013-07-18 03:20:00,76.7,71.1,29.98,South,174,0.0,0.0,83,0.00,,,0.00,0,HR-IXPWINDi_r2_v1.2.,2013-07-18 07:20:00,
2013-07-18 03:25:00,76.7,71.1,29.98,South,174,0.0,0.0,83,0.00,,,0.00,0,HR-IXPWINDi_r2_v1.2.,2013-07-18 07:25:00,
2013-07-18 03:31:00,76.5,71.2,29.98,South,174,0.0,0.0,84,0.00,,,0.00,0,HR-IXPWINDi_r2_v1.2.,2013-07-18 07:31:00,
2013-07-18 03:36:00,76.5,71.2,29.98,South,174,0.0,0.0,84,0.00,,,0.00,0,HR-IXPWINDi_r2_v1.2.,2013-07-18 07:36:00,
2013-07-18 03:41:00,76.5,71.2,29.98,South,174,0.0,0.0,84,0.00,,,0.00,0,HR-IXPWINDi_r2_v1.2.,2013-07-18 07:41:00,
2013-07-18 03:46:00,76.3,71.1,29.98,South,174,0.0,0.0,84,0.00,,,0.00,0,HR-IXPWINDi_r2_v1.2.,2013-07-18 07:46:00,
2013-07-18 03:51:00,76.3,71.1,29.97,South,174,0.0,0.0,84,0.00,,,0.00,0,HR-IXPWINDi_r2_v1.2.,2013-07-18 07:51:00,
2013-07-18 03:57:00,76.3,71.1,29.97,South,174,0.0,0.0,84,0.00,,,0.00,0,HR-IXPWINDi_r2_v1.2.,2013-07-18 07:57:00,
2013-07-18 04:02:00,76.1,71.2,29.97,South,174,0.0,0.0,85,0.00,,,0.00,0,HR-IXPWINDi_r2_v1.2.,2013-07-18 08:02:00,
2013-07-18 04:07:00,76.1,71.2,29.97,South,174,0.0,0.0,85,0.00,,,0.00,0,HR-IXPWINDi_r2_v1.2.,2013-07-18 08:07:00,
2013-07-18 04:12:00,76.0,71.1,29.97,South,174,0.0,0.0,85,0.00,,,0.00,0,HR-IXPWINDi_r2_v1.2.,2013-07-18 08:12:00,
2013-07-18 04:17:00,76.0,71.1,29.97,South,174,0.0,0.0,85,0.00,,,0.00,0,HR-IXPWINDi_r2_v1.2.,2013-07-18 08:17:00,
2013-07-18 04:22:00,76.0,71.1,29.97,South,174,0.0,0.0,85,0.00,,,0.00,0,HR-IXPWINDi_r2_v1.2.,2013-07-18 08:22:00,
2013-07-18 04:27:00,76.0,71.1,29.97,South,174,0.0,0.0,85,0.00,,,0.00,0,HR-IXPWINDi_r2_v1.2.,2013-07-18 08:27:00,
2013-07-18 04:33:00,75.8,71.3,29.97,South,174,0.0,0.0,86,0.00,,,0.00,0,HR-IXPWINDi_r2_v1.2.,2013-07-18 08:33:00,
2013-07-18 04:38:00,75.8,71.3,29.97,South,174,0.0,0.0,86,0.00,,,0.00,0,HR-IXPWINDi_r2_v1.2.,2013-07-18 08:38:00,
2013-07-18 04:43:00,75.6,71.1,29.97,South,174,0.0,0.0,86,0.00,,,0.00,0,HR-IXPWINDi_r2_v1.2.,2013-07-18 08:43:00,
2013-07-18 04:48:00,75.6,71.1,29.97,South,174,0.0,0.0,86,0.00,,,0.00,0,HR-IXPWINDi_r2_v1.2.,2013-07-18 08:48:00,
2013-07-18 04:53:00,75.6,71.1,29.97,South,174,0.0,0.0,86,0.00,,,0.00,0,HR-IXPWINDi_r2_v1.2.,2013-07-18 08:53:00,
2013-07-18 04:59:00,75.4,70.9,29.97,South,174,0.0,0.0,86,0.00,,,0.00,0,HR-IXPWINDi_r2_v1.2.,2013-07-18 08:59:00,
2013-07-18 05:04:00,75.4,71.2,29.97,South,174,0.0,0.0,87,0.00,,,0.00,0,HR-IXPWINDi_r2_v1.2.,2013-07-18 09:04:00,
2013-07-18 05:09:00,75.4,71.2,29.97,South,174,0.0,0.0,87,0.00,,,0.00,0,HR-IXPWINDi_r2_v1.2.,2013-07-18 09:09:00,
2013-07-18 05:14:00,75.3,71.1,29.97,South,174,0.0,0.0,87,0.00,,,0.00,0,HR-IXPWINDi_r2_v1.2.,2013-07-18 09:14:00,
2013-07-18 05:19:00,75.3,71.1,29.97,South,174,0.0,0.0,87,0.00,,,0.00,0,HR-IXPWINDi_r2_v1.2.,2013-07-18 09:19:00,
2013-07-18 05:24:00,75.1,70.9,29.98,South,174,0.0,0.0,87,0.00,,,0.00,0,HR-IXPWINDi_r2_v1.2.,2013-07-18 09:24:00,
2013-07-18 05:29:00,75.1,71.2,29.98,South,174,0.0,0.0,88,0.00,,,0.00,0,HR-IXPWINDi_r2_v1.2.,2013-07-18 09:29:00,
2013-07-18 05:34:00,74.9,71.0,29.97,South,174,0.0,0.0,88,0.00,,,0.00,0,HR-IXPWINDi_r2_v1.2.,2013-07-18 09:34:00,
2013-07-18 05:40:00,74.9,71.0,29.97,South,174,0.0,0.0,88,0.00,,,0.00,0,HR-IXPWINDi_r2_v1.2.,2013-07-18 09:40:00,
2013-07-18 05:45:00,74.9,71.4,29.97,South,174,0.0,0.0,89,0.00,,,0.00,0,HR-IXPWINDi_r2_v1.2.,2013-07-18 09:45:00,
2013-07-18 05:50:00,74.9,71.4,29.98,South,174,0.0,0.0,89,0.00,,,0.00,0,HR-IXPWINDi_r2_v1.2.,2013-07-18 09:50:00,
2013-07-18 05:55:00,74.9,71.4,29.98,South,174,0.0,0.0,89,0.00,,,0.00,0,HR-IXPWINDi_r2_v1.2.,2013-07-18 09:55:00,
2013-07-18 06:00:00,74.9,71.4,29.98,South,174,0.0,0.0,89,0.00,,,0.00,0,HR-IXPWINDi_r2_v1.2.,2013-07-18 10:00:00,
2013-07-18 06:06:00,74.9,71.4,29.98,South,174,0.0,0.0,89,0.00,,,0.00,0,HR-IXPWINDi_r2_v1.2.,2013-07-18 10:06:00,
2013-07-18 06:11:00,74.9,71.4,29.98,South,174,0.0,0.0,89,0.00,,,0.00,7,HR-IXPWINDi_r2_v1.2.,2013-07-18 10:11:00,
2013-07-18 06:16:00,74.9,71.4,29.98,South,174,0.0,0.0,89,0.00,,,0.00,9,HR-IXPWINDi_r2_v1.2.,2013-07-18 10:16:00,
2013-07-18 06:21:00,74.9,71.4,29.98,South,174,0.0,0.0,89,0.00,,,0.00,11,HR-IXPWINDi_r2_v1.2.,2013-07-18 10:21:00,
2013-07-18 06:26:00,74.9,71.4,29.98,South,174,0.0,0.0,89,0.00,,,0.00,12,HR-IXPWINDi_r2_v1.2.,2013-07-18 10:26:00,
2013-07-18 06:32:00,75.1,71.6,29.98,South,174,0.0,0.0,89,0.00,,,0.00,16,HR-IXPWINDi_r2_v1.2.,2013-07-18 10:32:00,
2013-07-18 06:37:00,75.1,71.6,29.99,South,174,0.0,0.0,89,0.00,,,0.00,18,HR-IXPWINDi_r2_v1.2.,2013-07-18 10:37:00,
2013-07-18 06:42:00,75.3,71.8,29.99,South,174,0.0,0.0,89,0.00,,,0.00,30,HR-IXPWINDi_r2_v1.2.,2013-07-18 10:42:00,
2013-07-18 06:48:00,75.4,71.9,29.99,South,174,0.0,0.0,89,0.00,,,0.00,28,HR-IXPWINDi_r2_v1.2.,2013-07-18 10:48:00,
2013-07-18 06:53:00,75.6,72.1,29.99,South,174,0.0,0.0,89,0.00,,,0.00,23,HR-IXPWINDi_r2_v1.2.,2013-07-18 10:53:00,
2013-07-18 06:58:00,75.8,72.3,29.99,South,174,0.0,0.0,89,0.00,,,0.00,25,HR-IXPWINDi_r2_v1.2.,2013-07-18 10:58:00,
2013-07-18 07:03:00,76.0,72.5,29.99,South,174,0.0,0.0,89,0.00,,,0.00,26,HR-IXPWINDi_r2_v1.2.,2013-07-18 11:03:00,
2013-07-18 07:08:00,76.1,72.6,29.99,South,174,0.0,0.0,89,0.00,,,0.00,26,HR-IXPWINDi_r2_v1.2.,2013-07-18 11:08:00,
2013-07-18 07:13:00,76.5,73.0,29.99,South,174,0.0,0.0,89,0.00,,,0.00,28,HR-IXPWINDi_r2_v1.2.,2013-07-18 11:13:00,
2013-07-18 07:19:00,76.8,73.3,29.99,South,174,0.0,0.0,89,0.00,,,0.00,30,HR-IXPWINDi_r2_v1.2.,2013-07-18 11:19:00,
2013-07-18 07:24:00,77.0,73.5,29.99,South,174,0.0,0.0,89,0.00,,,0.00,30,HR-IXPWINDi_r2_v1.2.,2013-07-18 11:24:00,
2013-07-18 07:30:00,77.4,73.8,29.99,South,174,0.0,0.0,89,0.00,,,0.00,33,HR-IXPWINDi_r2_v1.2.,2013-07-18 11:30:00,
2013-07-18 07:35:00,77.6,74.0,29.99,South,174,0.0,0.0,89,0.00,,,0.00,33,HR-IXPWINDi_r2_v1.2.,2013-07-18 11:35:00,
2013-07-18 07:40:00,77.9,74.0,29.99,South,174,0.0,0.0,88,0.00,,,0.00,39,HR-IXPWINDi_r2_v1.2.,2013-07-18 11:40:00,
2013-07-18 07:45:00,78.3,74.4,29.99,South,174,0.0,0.0,88,0.00,,,0.00,44,HR-IXPWINDi_r2_v1.2.,2013-07-18 11:45:00,
2013-07-18 07:50:00,78.5,74.6,29.99,South,174,0.0,0.0,88,0.00,,,0.00,40,HR-IXPWINDi_r2_v1.2.,2013-07-18 11:50:00,
2013-07-18 07:55:00,78.8,74.5,29.99,South,174,0.0,0.0,87,0.00,,,0.00,44,HR-IXPWINDi_r2_v1.2.,2013-07-18 11:55:00,
2013-07-18 08:01:00,79.4,74.8,29.99,South,174,0.0,0.0,86,0.00,,,0.00,40,HR-IXPWINDi_r2_v1.2.,2013-07-18 12:01:00,
2013-07-18 08:06:00,79.9,74.6,29.99,South,174,0.0,1.0,84,0.00,,,0.00,42,HR-IXPWINDi_r2_v1.2.,2013-07-18 12:06:00,
2013-07-18 08:11:00,80.7,74.3,29.99,South,174,0.0,2.0,81,0.00,,,0.00,49,HR-IXPWINDi_r2_v1.2.,2013-07-18 12:11:00,
2013-07-18 08:16:00,81.6,74.0,29.99,South,172,2.0,2.0,78,0.00,,,0.00,48,HR-IXPWINDi_r2_v1.2.,2013-07-18 12:16:00,
2013-07-18 08:22:00,82.0,73.6,29.99,South,172,0.0,3.0,76,0.00,,,0.00,48,HR-IXPWINDi_r2_v1.2.,2013-07-18 12:22:00,
2013-07-18 08:27:00,82.6,73.8,29.99,South,174,0.0,3.0,75,0.00,,,0.00,44,HR-IXPWINDi_r2_v1.2.,2013-07-18 12:27:00,
2013-07-18 08:32:00,83.0,74.6,29.99,South,174,0.0,0.0,76,0.00,,,0.00,44,HR-IXPWINDi_r2_v1.2.,2013-07-18 12:32:00,
2013-07-18 08:37:00,83.2,74.0,29.99,South,174,0.0,0.0,74,0.00,,,0.00,48,HR-IXPWINDi_r2_v1.2.,2013-07-18 12:37:00,
2013-07-18 08:42:00,83.4,74.2,29.99,South,174,0.0,0.0,74,0.00,,,0.00,48,HR-IXPWINDi_r2_v1.2.,2013-07-18 12:42:00,
2013-07-18 08:48:00,83.6,74.4,29.99,South,174,0.0,0.0,74,0.00,,,0.00,49,HR-IXPWINDi_r2_v1.2.,2013-07-18 12:48:00,
2013-07-18 08:53:00,83.8,74.2,29.99,South,174,0.0,0.0,73,0.00,,,0.00,72,HR-IXPWINDi_r2_v1.2.,2013-07-18 12:53:00,
2013-07-18 08:58:00,84.0,74.0,29.99,South,174,1.0,1.0,72,0.00,,,0.00,56,HR-IXPWINDi_r2_v1.2.,2013-07-18 12:58:00,
2013-07-18 09:03:00,84.1,74.0,29.99,South,172,0.0,2.0,72,0.00,,,0.00,62,HR-IXPWINDi_r2_v1.2.,2013-07-18 13:03:00,
2013-07-18 09:08:00,84.3,73.8,29.99,South,172,0.0,2.0,71,0.00,,,0.00,58,HR-IXPWINDi_r2_v1.2.,2013-07-18 13:08:00,
2013-07-18 09:14:00,84.3,73.8,29.99,SSE,168,0.0,2.0,71,0.00,,,0.00,58,HR-IXPWINDi_r2_v1.2.,2013-07-18 13:14:00,
2013-07-18 09:19:00,84.5,74.0,29.99,SSE,165,0.0,2.0,71,0.00,,,0.00,56,HR-IXPWINDi_r2_v1.2.,2013-07-18 13:19:00,
2013-07-18 09:24:00,84.7,73.8,29.99,ESE,110,0.0,3.0,70,0.00,,,0.00,116,HR-IXPWINDi_r2_v1.2.,2013-07-18 13:24:00,
2013-07-18 09:29:00,84.9,73.5,29.99,ESE,110,1.0,3.0,69,0.00,,,0.00,67,HR-IXPWINDi_r2_v1.2.,2013-07-18 13:29:00,
2013-07-18 09:34:00,85.1,73.7,29.99,ESE,110,0.0,2.0,69,0.00,,,0.00,63,HR-IXPWINDi_r2_v1.2.,2013-07-18 13:34:00,
2013-07-18 09:39:00,85.3,73.9,29.99,ENE,68,1.0,3.0,69,0.00,,,0.00,65,HR-IXPWINDi_r2_v1.2.,2013-07-18 13:39:00,
2013-07-18 09:44:00,85.7,74.3,29.99,ENE,68,0.0,3.0,69,0.00,,,0.00,74,HR-IXPWINDi_r2_v1.2.,2013-07-18 13:44:00,
2013-07-18 09:49:00,85.9,74.5,29.99,ENE,71,0.0,2.0,69,0.00,,,0.00,65,HR-IXPWINDi_r2_v1.2.,2013-07-18 13:49:00,
2013-07-18 09:55:00,86.1,74.3,29.99,ESE,104,0.0,5.0,68,0.00,,,0.00,65,HR-IXPWINDi_r2_v1.2.,2013-07-18 13:55:00,
2013-07-18 10:00:00,86.3,74.0,29.99,ESE,104,0.0,5.0,67,0.00,,,0.00,65,HR-IXPWINDi_r2_v1.2.,2013-07-18 14:00:00,
2013-07-18 10:05:00,86.5,74.2,29.99,ESE,104,0.0,3.0,67,0.00,,,0.00,67,HR-IXPWINDi_r2_v1.2.,2013-07-18 14:05:00,
2013-07-18 10:11:00,86.5,73.3,29.99,East,100,0.0,3.0,65,0.00,,,0.00,79,HR-IXPWINDi_r2_v1.2.,2013-07-18 14:11:00,
2013-07-18 10:16:00,86.5,73.3,29.99,East,100,0.0,3.0,65,0.00,,,0.00,69,HR-IXPWINDi_r2_v1.2.,2013-07-18 14:16:00,
2013-07-18 10:21:00,87.0,74.2,29.99,East,100,0.0,3.0,66,0.00,,,0.00,76,HR-IXPWINDi_r2_v1.2.,2013-07-18 14:21:00,
2013-07-18 10:26:00,87.2,74.0,29.99,East,100,0.0,2.0,65,0.00,,,0.00,69,HR-IXPWINDi_r2_v1.2.,2013-07-18 14:26:00,
2013-07-18 10:31:00,87.2,74.0,29.99,East,96,0.0,1.0,65,0.00,,,0.00,69,HR-IXPWINDi_r2_v1.2.,2013-07-18 14:31:00,
2013-07-18 10:37:00,87.4,73.7,29.99,East,96,0.0,1.0,64,0.00,,,0.00,72,HR-IXPWINDi_r2_v1.2.,2013-07-18 14:37:00,
2013-07-18 10:42:00,87.6,74.3,29.99,ENE,72,0.0,1.0,65,0.00,,,0.00,83,HR-IXPWINDi_r2_v1.2.,2013-07-18 14:42:00,
2013-07-18 10:47:00,87.6,73.9,29.99,ENE,72,0.0,1.0,64,0.00,,,0.00,77,HR-IXPWINDi_r2_v1.2.,2013-07-18 14:47:00,
2013-07-18 10:52:00,88.0,73.8,29.99,ENE,64,0.0,3.0,63,0.00,,,0.00,72,HR-IXPWINDi_r2_v1.2.,2013-07-18 14:52:00,
2013-07-18 10:57:00,88.2,73.5,29.99,ENE,65,1.0,3.0,62,0.00,,,0.00,77,HR-IXPWINDi_r2_v1.2.,2013-07-18 14:57:00,
2013-07-18 11:02:00,88.2,72.5,29.99,NE,52,0.0,3.0,60,0.00,,,0.00,83,HR-IXPWINDi_r2_v1.2.,2013-07-18 15:02:00,
2013-07-18 11:07:00,88.2,72.5,29.99,NE,49,0.0,3.0,60,0.00,,,0.00,79,HR-IXPWINDi_r2_v1.2.,2013-07-18 15:07:00,
2013-07-18 11:12:00,88.4,72.7,29.99,NE,49,1.0,3.0,60,0.00,,,0.00,79,HR-IXPWINDi_r2_v1.2.,2013-07-18 15:12:00,
2013-07-18 11:17:00,88.6,72.4,29.99,ENE,59,0.0,2.0,59,0.00,,,0.00,83,HR-IXPWINDi_r2_v1.2.,2013-07-18 15:17:00,
2013-07-18 11:22:00,88.6,72.4,29.98,ENE,59,0.0,2.0,59,0.00,,,0.00,81,HR-IXPWINDi_r2_v1.2.,2013-07-18 15:22:00,
2013-07-18 11:27:00,88.8,72.1,29.98,ENE,78,2.0,3.0,58,0.00,,,0.00,81,HR-IXPWINDi_r2_v1.2.,2013-07-18 15:27:00,
2013-07-18 11:33:00,89.0,71.8,29.98,ENE,78,0.0,3.0,57,0.00,,,0.00,83,HR-IXPWINDi_r2_v1.2.,2013-07-18 15:33:00,
2013-07-18 11:38:00,89.3,72.0,29.98,West,278,0.0,3.0,57,0.00,,,0.00,90,HR-IXPWINDi_r2_v1.2.,2013-07-18 15:38:00,
2013-07-18 11:43:00,89.3,70.4,29.98,NE,37,0.0,3.0,54,0.00,,,0.00,93,HR-IXPWINDi_r2_v1.2.,2013-07-18 15:43:00,
2013-07-18 11:48:00,89.5,69.5,29.98,ENE,61,0.0,3.0,52,0.00,,,0.00,100,HR-IXPWINDi_r2_v1.2.,2013-07-18 15:48:00,
2013-07-18 11:53:00,89.7,71.3,29.98,ENE,58,0.0,3.0,55,0.00,,,0.00,102,HR-IXPWINDi_r2_v1.2.,2013-07-18 15:53:00,
2013-07-18 11:58:00,89.9,71.5,29.98,ENE,68,1.0,2.0,55,0.00,,,0.00,109,HR-IXPWINDi_r2_v1.2.,2013-07-18 15:58:00,
2013-07-18 12:04:00,90.1,70.6,29.98,East,90,0.0,3.0,53,0.00,,,0.00,155,HR-IXPWINDi_r2_v1.2.,2013-07-18 16:04:00,
2013-07-18 12:09:00,90.3,71.4,29.98,East,90,0.0,3.0,54,0.00,,,0.00,832,HR-IXPWINDi_r2_v1.2.,2013-07-18 16:09:00,
2013-07-18 12:14:00,90.7,71.7,29.98,SSE,168,1.0,5.0,54,0.00,,,0.00,839,HR-IXPWINDi_r2_v1.2.,2013-07-18 16:14:00,
2013-07-18 12:19:00,91.0,70.9,29.98,South,169,0.0,5.0,52,0.00,,,0.00,887,HR-IXPWINDi_r2_v1.2.,2013-07-18 16:19:00,
2013-07-18 12:24:00,91.6,71.5,29.98,South,169,0.0,2.0,52,0.00,,,0.00,172,HR-IXPWINDi_r2_v1.2.,2013-07-18 16:24:00,
2013-07-18 12:29:00,91.6,72.0,29.98,South,169,0.0,2.0,53,0.00,,,0.00,150,HR-IXPWINDi_r2_v1.2.,2013-07-18 16:29:00,
2013-07-18 12:34:00,91.2,71.6,29.98,SSE,168,1.0,2.0,53,0.00,,,0.00,878,HR-IXPWINDi_r2_v1.2.,2013-07-18 16:34:00,
2013-07-18 12:40:00,91.0,71.5,29.98,SSE,161,0.0,2.0,53,0.00,,,0.00,938,HR-IXPWINDi_r2_v1.2.,2013-07-18 16:40:00,
2013-07-18 12:45:00,90.7,72.3,29.98,SSE,161,0.0,5.0,55,0.00,,,0.00,978,HR-IXPWINDi_r2_v1.2.,2013-07-18 16:45:00,
2013-07-18 12:50:00,91.0,72.0,29.97,SSE,160,0.0,5.0,54,0.00,,,0.00,171,HR-IXPWINDi_r2_v1.2.,2013-07-18 16:50:00,
2013-07-18 12:56:00,91.2,72.2,29.97,SSE,160,0.0,1.0,54,0.00,,,0.00,843,HR-IXPWINDi_r2_v1.2.,2013-07-18 16:56:00,
2013-07-18 13:01:00,91.0,72.6,29.97,SSE,160,0.0,0.0,55,0.00,,,0.00,867,HR-IXPWINDi_r2_v1.2.,2013-07-18 17:01:00,
2013-07-18 13:06:00,91.0,72.0,29.97,SE,137,0.0,5.0,54,0.00,,,0.00,862,HR-IXPWINDi_r2_v1.2.,2013-07-18 17:06:00,
2013-07-18 13:11:00,91.4,71.8,29.97,SE,137,0.0,5.0,53,0.00,,,0.00,857,HR-IXPWINDi_r2_v1.2.,2013-07-18 17:11:00,
2013-07-18 13:16:00,91.8,71.6,29.97,SE,133,0.0,2.0,52,0.00,,,0.00,889,HR-IXPWINDi_r2_v1.2.,2013-07-18 17:16:00,
2013-07-18 13:22:00,91.8,71.6,29.96,SE,133,0.0,3.0,52,0.00,,,0.00,883,HR-IXPWINDi_r2_v1.2.,2013-07-18 17:22:00,
2013-07-18 13:27:00,92.1,71.3,29.96,South,169,2.0,3.0,51,0.00,,,0.00,880,HR-IXPWINDi_r2_v1.2.,2013-07-18 17:27:00,
2013-07-18 13:32:00,92.5,71.7,29.96,NE,47,0.0,3.0,51,0.00,,,0.00,882,HR-IXPWINDi_r2_v1.2.,2013-07-18 17:32:00,
2013-07-18 13:38:00,92.7,72.5,29.96,East,99,0.0,5.0,52,0.00,,,0.00,892,HR-IXPWINDi_r2_v1.2.,2013-07-18 17:38:00,
2013-07-18 13:43:00,93.2,70.6,29.96,South,175,1.0,5.0,48,0.00,,,0.00,859,HR-IXPWINDi_r2_v1.2.,2013-07-18 17:43:00,
2013-07-18 13:48:00,93.2,70.6,29.96,South,175,0.0,3.0,48,0.00,,,0.00,869,HR-IXPWINDi_r2_v1.2.,2013-07-18 17:48:00,
2013-07-18 13:53:00,92.9,69.7,29.96,SE,137,2.0,5.0,47,0.00,,,0.00,823,HR-IXPWINDi_r2_v1.2.,2013-07-18 17:53:00,
2013-07-18 13:58:00,93.4,68.9,29.96,SSE,154,0.0,5.0,45,0.00,,,0.00,855,HR-IXPWINDi_r2_v1.2.,2013-07-18 17:58:00,
2013-07-18 14:03:00,93.6,69.0,29.96,SSE,154,0.0,2.0,45,0.00,,,0.00,869,HR-IXPWINDi_r2_v1.2.,2013-07-18 18:03:00,
2013-07-18 14:08:00,94.0,68.1,29.95,SSE,161,0.0,1.0,43,0.00,,,0.00,866,HR-IXPWINDi_r2_v1.2.,2013-07-18 18:08:00,
2013-07-18 14:14:00,93.8,68.6,29.95,SE,144,0.0,5.0,44,0.00,,,0.00,850,HR-IXPWINDi_r2_v1.2.,2013-07-18 18:14:00,
2013-07-18 14:19:00,93.4,67.5,29.95,ESE,106,0.0,5.0,43,0.00,,,0.00,857,HR-IXPWINDi_r2_v1.2.,2013-07-18 18:19:00,
2013-07-18 14:24:00,93.2,68.0,29.95,East,99,1.0,5.0,44,0.00,,,0.00,834,HR-IXPWINDi_r2_v1.2.,2013-07-18 18:24:00,
2013-07-18 14:29:00,93.4,68.2,29.95,East,86,0.0,5.0,44,0.00,,,0.00,841,HR-IXPWINDi_r2_v1.2.,2013-07-18 18:29:00,
2013-07-18 14:34:00,94.0,66.7,29.95,ENE,73,1.0,4.0,41,0.00,,,0.00,836,HR-IXPWINDi_r2_v1.2.,2013-07-18 18:34:00,
2013-07-18 14:39:00,94.0,66.0,29.95,ENE,75,0.0,3.0,40,0.00,,,0.00,802,HR-IXPWINDi_r2_v1.2.,2013-07-18 18:39:00,
2013-07-18 14:44:00,93.8,67.2,29.95,ENE,75,0.0,3.0,42,0.00,,,0.00,118,HR-IXPWINDi_r2_v1.2.,2013-07-18 18:44:00,
2013-07-18 14:50:00,94.0,67.4,29.94,SE,131,0.0,3.0,42,0.00,,,0.00,134,HR-IXPWINDi_r2_v1.2.,2013-07-18 18:50:00,
2013-07-18 14:55:00,94.3,67.7,29.94,SSE,164,3.0,5.0,42,0.00,,,0.00,788,HR-IXPWINDi_r2_v1.2.,2013-07-18 18:55:00,
2013-07-18 15:00:00,93.8,67.2,29.94,SSE,150,3.0,5.0,42,0.00,,,0.00,783,HR-IXPWINDi_r2_v1.2.,2013-07-18 19:00:00,
2013-07-18 15:05:00,93.8,68.6,29.94,SSE,151,0.0,5.0,44,0.00,,,0.00,806,HR-IXPWINDi_r2_v1.2.,2013-07-18 19:05:00,
2013-07-18 15:11:00,94.0,69.4,29.94,ESE,110,2.0,3.0,45,0.00,,,0.00,772,HR-IXPWINDi_r2_v1.2.,2013-07-18 19:11:00,
2013-07-18 15:16:00,94.0,68.7,29.94,ESE,107,0.0,3.0,44,0.00,,,0.00,723,HR-IXPWINDi_r2_v1.2.,2013-07-18 19:16:00,
2013-07-18 15:21:00,94.0,68.7,29.94,ESE,107,0.0,3.0,44,0.00,,,0.00,741,HR-IXPWINDi_r2_v1.2.,2013-07-18 19:21:00,
2013-07-18 15:26:00,94.0,69.4,29.94,ESE,107,0.0,3.0,45,0.00,,,0.00,748,HR-IXPWINDi_r2_v1.2.,2013-07-18 19:26:00,
2013-07-18 15:32:00,94.0,68.7,29.94,ESE,107,0.0,2.0,44,0.00,,,0.00,741,HR-IXPWINDi_r2_v1.2.,2013-07-18 19:32:00,
2013-07-18 15:37:00,94.3,69.0,29.93,SSE,157,2.0,5.0,44,0.00,,,0.00,721,HR-IXPWINDi_r2_v1.2.,2013-07-18 19:37:00,
2013-07-18 15:42:00,94.5,68.5,29.93,ENE,65,0.0,7.0,43,0.00,,,0.00,691,HR-IXPWINDi_r2_v1.2.,2013-07-18 19:42:00,
2013-07-18 15:47:00,94.5,67.1,29.93,ENE,65,0.0,7.0,41,0.00,,,0.00,702,HR-IXPWINDi_r2_v1.2.,2013-07-18 19:47:00,
2013-07-18 15:52:00,94.5,68.5,29.93,ENE,65,0.0,3.0,43,0.00,,,0.00,704,HR-IXPWINDi_r2_v1.2.,2013-07-18 19:52:00,
2013-07-18 15:58:00,94.9,68.2,29.93,ENE,65,0.0,2.0,42,0.00,,,0.00,711,HR-IXPWINDi_r2_v1.2.,2013-07-18 19:58:00,
2013-07-18 16:03:00,95.6,68.1,29.93,ENE,65,0.0,1.0,41,0.00,,,0.00,697,HR-IXPWINDi_r2_v1.2.,2013-07-18 20:03:00,
2013-07-18 16:08:00,95.9,69.8,29.92,SSW,212,0.0,2.0,43,0.00,,,0.00,635,HR-IXPWINDi_r2_v1.2.,2013-07-18 20:08:00,
2013-07-18 16:13:00,95.4,67.9,29.92,SSE,162,0.0,5.0,41,0.00,,,0.00,596,HR-IXPWINDi_r2_v1.2.,2013-07-18 20:13:00,
2013-07-18 16:18:00,95.1,69.1,29.92,ESE,117,0.0,5.0,43,0.00,,,0.00,479,HR-IXPWINDi_r2_v1.2.,2013-07-18 20:18:00,
2013-07-18 16:24:00,95.1,70.4,29.92,ESE,117,0.0,2.0,45,0.00,,,0.00,626,HR-IXPWINDi_r2_v1.2.,2013-07-18 20:24:00,
2013-07-18 16:29:00,95.1,70.4,29.92,ESE,117,0.0,0.0,45,0.00,,,0.00,123,HR-IXPWINDi_r2_v1.2.,2013-07-18 20:29:00,
2013-07-18 16:34:00,94.7,70.7,29.92,West,264,0.0,3.0,46,0.00,,,0.00,560,HR-IXPWINDi_r2_v1.2.,2013-07-18 20:34:00,
2013-07-18 16:39:00,94.0,68.1,29.91,West,260,1.0,3.0,43,0.00,,,0.00,120,HR-IXPWINDi_r2_v1.2.,2013-07-18 20:39:00,
2013-07-18 16:45:00,93.6,69.7,29.91,West,261,0.0,2.0,46,0.00,,,0.00,106,HR-IXPWINDi_r2_v1.2.,2013-07-18 20:45:00,
2013-07-18 16:50:00,93.2,69.9,29.91,ESE,109,0.0,4.0,47,0.00,,,0.00,104,HR-IXPWINDi_r2_v1.2.,2013-07-18 20:50:00,
2013-07-18 16:55:00,92.9,68.4,29.91,ESE,109,0.0,4.0,45,0.00,,,0.00,100,HR-IXPWINDi_r2_v1.2.,2013-07-18 20:55:00,
2013-07-18 17:00:00,92.7,70.1,29.91,ESE,109,0.0,1.0,48,0.00,,,0.00,86,HR-IXPWINDi_r2_v1.2.,2013-07-18 21:00:00,
2013-07-18 17:05:00,92.5,70.5,29.91,ESE,109,0.0,1.0,49,0.00,,,0.00,81,HR-IXPWINDi_r2_v1.2.,2013-07-18 21:05:00,
2013-07-18 17:10:00,92.1,70.8,29.91,ESE,109,0.0,1.0,50,0.00,,,0.00,76,HR-IXPWINDi_r2_v1.2.,2013-07-18 21:10:00,
2013-07-18 17:15:00,91.8,69.3,29.91,NE,47,0.0,2.0,48,0.00,,,0.00,69,HR-IXPWINDi_r2_v1.2.,2013-07-18 21:15:00,
2013-07-18 17:21:00,91.6,70.3,29.91,NE,48,0.0,2.0,50,0.00,,,0.00,86,HR-IXPWINDi_r2_v1.2.,2013-07-18 21:21:00,
2013-07-18 17:26:00,91.6,70.9,29.91,NE,48,0.0,2.0,51,0.00,,,0.00,65,HR-IXPWINDi_r2_v1.2.,2013-07-18 21:26:00,
2013-07-18 17:31:00,91.4,69.5,29.91,NE,42,0.0,2.0,49,0.00,,,0.00,69,HR-IXPWINDi_r2_v1.2.,2013-07-18 21:31:00,
2013-07-18 17:36:00,91.2,71.1,29.90,North,0,1.0,1.0,52,0.00,,,0.00,55,HR-IXPWINDi_r2_v1.2.,2013-07-18 21:36:00,
2013-07-18 17:42:00,91.0,70.3,29.90,North,0,0.0,1.0,51,0.00,,,0.00,51,HR-IXPWINDi_r2_v1.2.,2013-07-18 21:42:00,
2013-07-18 17:47:00,91.0,70.9,29.90,North,0,0.0,1.0,52,0.00,,,0.00,46,HR-IXPWINDi_r2_v1.2.,2013-07-18 21:47:00,
2013-07-18 17:52:00,90.5,70.4,29.90,North,0,0.0,1.0,52,0.00,,,0.00,40,HR-IXPWINDi_r2_v1.2.,2013-07-18 21:52:00,
2013-07-18 17:57:00,90.3,71.4,29.90,North,0,0.0,1.0,54,0.00,,,0.00,40,HR-IXPWINDi_r2_v1.2.,2013-07-18 21:57:00,
2013-07-18 18:02:00,90.1,71.2,29.90,North,0,0.0,0.0,54,0.00,,,0.00,37,HR-IXPWINDi_r2_v1.2.,2013-07-18 22:02:00,
2013-07-18 18:07:00,89.9,71.0,29.91,North,0,0.0,0.0,54,0.00,,,0.00,33,HR-IXPWINDi_r2_v1.2.,2013-07-18 22:07:00,
2013-07-18 18:12:00,89.9,71.5,29.91,North,0,0.0,0.0,55,0.00,,,0.00,30,HR-IXPWINDi_r2_v1.2.,2013-07-18 22:12:00,
2013-07-18 18:18:00,89.5,71.7,29.91,North,0,0.0,0.0,56,0.00,,,0.00,32,HR-IXPWINDi_r2_v1.2.,2013-07-18 22:18:00,
2013-07-18 18:23:00,89.3,72.0,29.91,North,0,0.0,0.0,57,0.00,,,0.00,35,HR-IXPWINDi_r2_v1.2.,2013-07-18 22:23:00,
2013-07-18 18:28:00,89.0,71.8,29.91,North,0,0.0,0.0,57,0.00,,,0.00,42,HR-IXPWINDi_r2_v1.2.,2013-07-18 22:28:00,
2013-07-18 18:33:00,89.0,72.8,29.91,North,0,0.0,0.0,59,0.00,,,0.00,33,HR-IXPWINDi_r2_v1.2.,2013-07-18 22:33:00,
2013-07-18 18:39:00,88.8,72.1,29.92,North,0,0.0,0.0,58,0.00,,,0.00,23,HR-IXPWINDi_r2_v1.2.,2013-07-18 22:39:00,
2013-07-18 18:44:00,88.6,72.9,29.92,North,0,0.0,0.0,60,0.00,,,0.00,19,HR-IXPWINDi_r2_v1.2.,2013-07-18 22:44:00,
2013-07-18 18:49:00,88.2,72.5,29.92,North,0,0.0,0.0,60,0.00,,,0.00,18,HR-IXPWINDi_r2_v1.2.,2013-07-18 22:49:00,
2013-07-18 18:54:00,88.0,72.8,29.92,North,0,0.0,0.0,61,0.00,,,0.00,14,HR-IXPWINDi_r2_v1.2.,2013-07-18 22:54:00,
2013-07-18 18:59:00,87.8,73.6,29.92,North,0,0.0,0.0,63,0.00,,,0.00,14,HR-IXPWINDi_r2_v1.2.,2013-07-18 22:59:00,
2013-07-18 19:04:00,87.6,73.4,29.92,North,0,0.0,0.0,63,0.00,,,0.00,12,HR-IXPWINDi_r2_v1.2.,2013-07-18 23:04:00,
2013-07-18 19:10:00,87.4,73.2,29.92,North,0,0.0,0.0,63,0.00,,,0.00,14,HR-IXPWINDi_r2_v1.2.,2013-07-18 23:10:00,
2013-07-18 19:15:00,87.2,73.0,29.92,North,0,0.0,0.0,63,0.00,,,0.00,18,HR-IXPWINDi_r2_v1.2.,2013-07-18 23:15:00,
2013-07-18 19:20:00,87.0,72.8,29.92,North,0,0.0,0.0,63,0.00,,,0.00,18,HR-IXPWINDi_r2_v1.2.,2013-07-18 23:20:00,
2013-07-18 19:25:00,87.0,72.8,29.92,North,0,0.0,0.0,63,0.00,,,0.00,18,HR-IXPWINDi_r2_v1.2.,2013-07-18 23:25:00,
2013-07-18 19:30:00,86.7,72.6,29.92,North,0,0.0,0.0,63,0.00,,,0.00,18,HR-IXPWINDi_r2_v1.2.,2013-07-18 23:30:00,
2013-07-18 19:35:00,86.5,72.4,29.92,North,0,0.0,0.0,63,0.00,,,0.00,12,HR-IXPWINDi_r2_v1.2.,2013-07-18 23:35:00,
2013-07-18 19:41:00,86.3,73.1,29.92,North,0,0.0,0.0,65,0.00,,,0.00,11,HR-IXPWINDi_r2_v1.2.,2013-07-18 23:41:00,
2013-07-18 19:46:00,86.1,72.5,29.92,North,0,0.0,0.0,64,0.00,,,0.00,11,HR-IXPWINDi_r2_v1.2.,2013-07-18 23:46:00,
2013-07-18 19:51:00,85.9,72.7,29.92,North,0,0.0,0.0,65,0.00,,,0.00,11,HR-IXPWINDi_r2_v1.2.,2013-07-18 23:51:00,
2013-07-18 19:56:00,85.7,73.0,29.92,North,0,0.0,0.0,66,0.00,,,0.00,9,HR-IXPWINDi_r2_v1.2.,2013-07-18 23:56:00,
2013-07-18 20:02:00,85.5,73.2,29.92,North,0,0.0,0.0,67,0.00,,,0.00,7,HR-IXPWINDi_r2_v1.2.,2013-07-19 00:02:00,
2013-07-18 20:07:00,85.3,73.5,29.92,North,0,0.0,0.0,68,0.00,,,0.00,5,HR-IXPWINDi_r2_v1.2.,2013-07-19 00:07:00,
2013-07-18 20:12:00,85.1,72.9,29.92,North,0,0.0,0.0,67,0.00,,,0.00,0,HR-IXPWINDi_r2_v1.2.,2013-07-19 00:12:00,
2013-07-18 20:17:00,84.9,72.7,29.92,North,0,0.0,0.0,67,0.00,,,0.00,0,HR-IXPWINDi_r2_v1.2.,2013-07-19 00:17:00,
2013-07-18 20:22:00,84.7,72.5,29.92,North,0,0.0,0.0,67,0.00,,,0.00,0,HR-IXPWINDi_r2_v1.2.,2013-07-19 00:22:00,
2013-07-18 20:27:00,84.5,73.2,29.92,North,0,0.0,0.0,69,0.00,,,0.00,0,HR-IXPWINDi_r2_v1.2.,2013-07-19 00:27:00,
2013-07-18 20:32:00,84.3,73.4,29.92,North,0,0.0,0.0,70,0.00,,,0.00,0,HR-IXPWINDi_r2_v1.2.,2013-07-19 00:32:00,
2013-07-18 20:38:00,84.1,72.8,29.92,North,0,0.0,0.0,69,0.00,,,0.00,0,HR-IXPWINDi_r2_v1.2.,2013-07-19 00:38:00,
2013-07-18 20:43:00,84.0,73.1,29.92,North,0,0.0,0.0,70,0.00,,,0.00,0,HR-IXPWINDi_r2_v1.2.,2013-07-19 00:43:00,
2013-07-18 20:48:00,83.8,72.5,29.92,North,0,0.0,0.0,69,0.00,,,0.00,0,HR-IXPWINDi_r2_v1.2.,2013-07-19 00:48:00,
2013-07-18 20:53:00,83.8,72.5,29.92,North,0,0.0,0.0,69,0.00,,,0.00,0,HR-IXPWINDi_r2_v1.2.,2013-07-19 00:53:00,
2013-07-18 20:58:00,83.6,72.7,29.92,North,0,0.0,0.0,70,0.00,,,0.00,0,HR-IXPWINDi_r2_v1.2.,2013-07-19 00:58:00,
2013-07-18 21:04:00,83.6,73.2,29.92,North,0,0.0,0.0,71,0.00,,,0.00,0,HR-IXPWINDi_r2_v1.2.,2013-07-19 01:04:00,
2013-07-18 21:09:00,83.4,73.4,29.92,North,0,0.0,0.0,72,0.00,,,0.00,0,HR-IXPWINDi_r2_v1.2.,2013-07-19 01:09:00,
2013-07-18 21:14:00,83.0,73.0,29.92,North,0,0.0,0.0,72,0.00,,,0.00,0,HR-IXPWINDi_r2_v1.2.,2013-07-19 01:14:00,
2013-07-18 21:20:00,82.6,72.6,29.93,North,0,0.0,0.0,72,0.00,,,0.00,0,HR-IXPWINDi_r2_v1.2.,2013-07-19 01:20:00,
2013-07-18 21:26:00,82.4,72.4,29.93,North,0,0.0,0.0,72,0.00,,,0.00,0,HR-IXPWINDi_r2_v1.2.,2013-07-19 01:26:00,
2013-07-18 21:31:00,82.4,72.8,29.93,North,0,0.0,0.0,73,0.00,,,0.00,0,HR-IXPWINDi_r2_v1.2.,2013-07-19 01:31:00,
2013-07-18 21:36:00,82.2,73.4,29.93,North,0,0.0,0.0,75,0.00,,,0.00,0,HR-IXPWINDi_r2_v1.2.,2013-07-19 01:36:00,
2013-07-18 21:41:00,82.0,73.2,29.93,North,0,0.0,0.0,75,0.00,,,0.00,0,HR-IXPWINDi_r2_v1.2.,2013-07-19 01:41:00,
2013-07-18 21:46:00,81.8,73.4,29.93,North,0,0.0,0.0,76,0.00,,,0.00,0,HR-IXPWINDi_r2_v1.2.,2013-07-19 01:46:00,
2013-07-18 21:51:00,81.4,73.1,29.93,North,0,0.0,0.0,76,0.00,,,0.00,0,HR-IXPWINDi_r2_v1.2.,2013-07-19 01:51:00,
2013-07-18 21:57:00,81.4,73.4,29.93,North,0,0.0,0.0,77,0.00,,,0.00,0,HR-IXPWINDi_r2_v1.2.,2013-07-19 01:57:00,
2013-07-18 22:02:00,81.2,74.0,29.93,North,0,0.0,0.0,79,0.00,,,0.00,0,HR-IXPWINDi_r2_v1.2.,2013-07-19 02:02:00,
2013-07-18 22:07:00,81.2,74.0,29.92,North,0,0.0,0.0,79,0.00,,,0.00,0,HR-IXPWINDi_r2_v1.2.,2013-07-19 02:07:00,
2013-07-18 22:12:00,81.1,73.9,29.92,North,0,0.0,0.0,79,0.00,,,0.00,0,HR-IXPWINDi_r2_v1.2.,2013-07-19 02:12:00,
2013-07-18 22:18:00,80.9,73.7,29.92,North,0,0.0,0.0,79,0.00,,,0.00,0,HR-IXPWINDi_r2_v1.2.,2013-07-19 02:18:00,
2013-07-18 22:23:00,80.7,73.5,29.93,North,0,0.0,0.0,79,0.00,,,0.00,0,HR-IXPWINDi_r2_v1.2.,2013-07-19 02:23:00,
2013-07-18 22:28:00,80.7,73.5,29.93,North,0,0.0,0.0,79,0.00,,,0.00,0,HR-IXPWINDi_r2_v1.2.,2013-07-19 02:28:00,
2013-07-18 22:34:00,80.5,73.7,29.93,North,0,0.0,0.0,80,0.00,,,0.00,0,HR-IXPWINDi_r2_v1.2.,2013-07-19 02:34:00,
2013-07-18 22:39:00,80.3,73.5,29.92,North,0,0.0,0.0,80,0.00,,,0.00,0,HR-IXPWINDi_r2_v1.2.,2013-07-19 02:39:00,
2013-07-18 22:44:00,80.3,73.9,29.92,North,0,0.0,0.0,81,0.00,,,0.00,0,HR-IXPWINDi_r2_v1.2.,2013-07-19 02:44:00,
2013-07-18 22:49:00,80.1,73.7,29.91,North,0,0.0,0.0,81,0.00,,,0.00,0,HR-IXPWINDi_r2_v1.2.,2013-07-19 02:49:00,
2013-07-18 22:55:00,79.9,73.5,29.91,North,0,0.0,0.0,81,0.00,,,0.00,0,HR-IXPWINDi_r2_v1.2.,2013-07-19 02:55:00,
2013-07-18 23:00:00,79.9,73.5,29.91,North,0,0.0,0.0,81,0.00,,,0.00,0,HR-IXPWINDi_r2_v1.2.,2013-07-19 03:00:00,
2013-07-18 23:05:00,79.9,73.5,29.91,North,0,0.0,0.0,81,0.00,,,0.00,0,HR-IXPWINDi_r2_v1.2.,2013-07-19 03:05:00,
2013-07-18 23:10:00,79.9,73.5,29.91,North,0,0.0,0.0,81,0.00,,,0.00,0,HR-IXPWINDi_r2_v1.2.,2013-07-19 03:10:00,
2013-07-18 23:15:00,79.9,73.5,29.91,North,0,0.0,0.0,81,0.00,,,0.00,0,HR-IXPWINDi_r2_v1.2.,2013-07-19 03:15:00,
2013-07-18 23:20:00,79.9,73.9,29.91,North,0,0.0,0.0,82,0.00,,,0.00,0,HR-IXPWINDi_r2_v1.2.,2013-07-19 03:20:00,
2013-07-18 23:26:00,79.8,73.8,29.91,North,0,0.0,0.0,82,0.00,,,0.00,0,HR-IXPWINDi_r2_v1.2.,2013-07-19 03:26:00,
2013-07-18 23:31:00,79.6,73.6,29.91,North,0,0.0,0.0,82,0.00,,,0.00,0,HR-IXPWINDi_r2_v1.2.,2013-07-19 03:31:00,
2013-07-18 23:36:00,79.6,73.9,29.90,North,0,0.0,0.0,83,0.00,,,0.00,0,HR-IXPWINDi_r2_v1.2.,2013-07-19 03:36:00,
2013-07-18 23:41:00,79.4,73.7,29.90,North,0,0.0,0.0,83,0.00,,,0.00,0,HR-IXPWINDi_r2_v1.2.,2013-07-19 03:41:00,
2013-07-18 23:46:00,79.4,73.7,29.90,North,0,0.0,0.0,83,0.00,,,0.00,0,HR-IXPWINDi_r2_v1.2.,2013-07-19 03:46:00,
2013-07-18 23:51:00,79.2,73.5,29.91,North,0,0.0,0.0,83,0.00,,,0.00,0,HR-IXPWINDi_r2_v1.2.,2013-07-19 03:51:00,
2013-07-18 23:56:00,79.2,73.5,29.91,North,0,0.0,0.0,83,0.00,,,0.00,0,HR-IXPWINDi_r2_v1.2.,2013-07-19 03:56:00,